Weather History for Southern Pines, NC

Change the Weather History Date:

Wednesday, October 23, 2013

  Actual Average Record
Temperature  
Mean Temperature 58 °F -  
Max Temperature 69 °F 67 °F 84 °F (2007)
Min Temperature 46 °F 45 °F 33 °F (1997)
Degree Days  
Heating Degree Days 8    
Growing Degree Days 8 (Base 50)    
Moisture  
Dew Point 43 °F    
Average Humidity 59    
Maximum Humidity 88    
Minimum Humidity 26    
Precipitation  
Precipitation 0.00 in - - ()
Sea Level Pressure  
Sea Level Pressure 29.80 in    
Wind  
Wind Speed 7 mph (WNW)    
Max Wind Speed 12 mph    
Max Gust Speed 21 mph    
Visibility 10 miles    
Events      
Averages and records for this station are not official NWS values.
T = Trace of Precipitation, MM = Missing Value Source: NWS Daily Summary

Daily Weather History Graph

Daily Weather History Graph

Search for Another Location

Airport:

Trip Planner

Search our weather history database for the weather conditions in past years. The results will help you decide how hot, cold, wet, or windy it might be!

Date:

Astronomy

Oct. 23, 2013 Rise Set
Actual Time 7:30 AM EDT 6:32 PM EDT
Civil Twilight 7:04 AM EDT 6:58 PM EDT
Nautical Twilight 6:35 AM EDT 7:27 PM EDT
Astronomical Twilight 6:05 AM EDT 7:57 PM EDT
Moon 10:07 PM EDT (10/23) 11:41 AM EDT (10/23)
Length of Visible Light 11h 53m
Length of Day
11h 01m
Waning Gibbous, 79% of the Moon is Illuminated
Oct 23
Waning Gibbous
Oct 26
Last Quarter
Nov 3
New
Nov 10
First Quarter
Nov 17
Full

Hourly Weather History & Observations

Time (EDT) Temp. Windchill Dew Point Humidity Pressure Visibility Wind Dir Wind Speed Gust Speed Precip Events Conditions
12:15 AM 59.0 °F - 53.6 °F 82% 29.82 in 10.0 mi SW 5.8 mph - N/A   Mostly Cloudy
12:35 AM 59.0 °F - 53.6 °F 82% 29.81 in 10.0 mi SW 8.1 mph - N/A   Scattered Clouds
12:55 AM 59.0 °F - 53.6 °F 82% 29.81 in 10.0 mi WSW 4.6 mph - N/A   Partly Cloudy
1:15 AM 57.2 °F - 53.6 °F 88% 29.80 in 10.0 mi SW 5.8 mph - N/A   Partly Cloudy
1:35 AM 57.2 °F - 53.6 °F 88% 29.79 in 10.0 mi SW 6.9 mph - N/A   Mostly Cloudy
1:55 AM 57.2 °F - 53.6 °F 88% 29.79 in 10.0 mi SW 6.9 mph - N/A   Mostly Cloudy
2:15 AM 57.2 °F - 53.6 °F 88% 29.79 in 10.0 mi SW 6.9 mph - N/A   Partly Cloudy
2:35 AM 57.2 °F - 53.6 °F 88% 29.78 in 10.0 mi SSW 8.1 mph - N/A   Mostly Cloudy
2:55 AM 57.2 °F - 53.6 °F 88% 29.77 in 10.0 mi SSW 8.1 mph - N/A   Mostly Cloudy
3:15 AM 59.0 °F - 53.6 °F 82% 29.76 in 10.0 mi SW 10.4 mph - N/A   Overcast
3:35 AM 59.0 °F - 55.4 °F 88% 29.76 in 7.0 mi SW 10.4 mph 16.1 mph N/A   Overcast
3:55 AM 59.0 °F - 55.4 °F 88% 29.75 in 7.0 mi WSW 8.1 mph - N/A   Overcast
4:15 AM 59.0 °F - 55.4 °F 88% 29.74 in 7.0 mi WSW 5.8 mph - N/A   Overcast
4:35 AM 59.0 °F - 55.4 °F 88% 29.74 in 6.0 mi SW 8.1 mph - N/A   Overcast
4:55 AM 59.0 °F - 55.4 °F 88% 29.74 in 7.0 mi SW 6.9 mph - N/A   Overcast
5:15 AM 60.8 °F - 55.4 °F 82% 29.73 in 8.0 mi SSW 5.8 mph - N/A   Mostly Cloudy
5:35 AM 59.0 °F - 55.4 °F 88% 29.73 in 7.0 mi SW 6.9 mph - N/A   Overcast
5:55 AM 59.0 °F - 55.4 °F 88% 29.72 in 8.0 mi SW 6.9 mph - N/A   Overcast
6:15 AM 59.0 °F - 55.4 °F 88% 29.73 in 8.0 mi WSW 5.8 mph - N/A   Overcast
6:35 AM 59.0 °F - 53.6 °F 82% 29.73 in 8.0 mi WSW 5.8 mph - N/A   Overcast
6:55 AM 59.0 °F - 55.4 °F 88% 29.72 in 8.0 mi WSW 6.9 mph - N/A   Overcast
7:15 AM 59.0 °F - 53.6 °F 82% 29.72 in 8.0 mi WSW 6.9 mph - N/A   Mostly Cloudy
7:35 AM 57.2 °F - 53.6 °F 88% 29.73 in 8.0 mi WSW 9.2 mph - N/A   Mostly Cloudy
7:55 AM 57.2 °F - 53.6 °F 88% 29.73 in 9.0 mi West 3.5 mph - N/A   Scattered Clouds
8:15 AM 57.2 °F - 53.6 °F 88% 29.73 in 8.0 mi Calm Calm - N/A   Clear
8:35 AM 59.0 °F - 53.6 °F 82% 29.73 in 8.0 mi West 3.5 mph - N/A   Clear
8:55 AM 59.0 °F - 53.6 °F 82% 29.74 in 10.0 mi WNW 4.6 mph - N/A   Partly Cloudy
9:15 AM 59.0 °F - 53.6 °F 82% 29.75 in 10.0 mi WNW 6.9 mph - N/A   Mostly Cloudy
9:35 AM 60.8 °F - 53.6 °F 77% 29.75 in 10.0 mi West 6.9 mph - N/A   Mostly Cloudy
9:55 AM 62.6 °F - 53.6 °F 72% 29.75 in 10.0 mi NW 5.8 mph - N/A   Mostly Cloudy
10:15 AM 62.6 °F - 51.8 °F 68% 29.75 in 10.0 mi NW 6.9 mph - N/A   Partly Cloudy
10:35 AM 64.4 °F - 50.0 °F 59% 29.75 in 10.0 mi WNW 9.2 mph - N/A   Partly Cloudy
10:55 AM 64.4 °F - 50.0 °F 59% 29.75 in 10.0 mi North - - N/A   Mostly Cloudy
11:15 AM 64.4 °F - 48.2 °F 56% 29.75 in 10.0 mi WNW 8.1 mph - N/A   Mostly Cloudy
11:35 AM 64.4 °F - 46.4 °F 52% 29.75 in 10.0 mi NW 8.1 mph 17.3 mph N/A   Partly Cloudy
11:55 AM 66.2 °F - 42.8 °F 43% 29.75 in 10.0 mi West 11.5 mph 16.1 mph N/A   Clear
12:15 PM 66.2 °F - 42.8 °F 43% 29.74 in 10.0 mi NNW 9.2 mph 17.3 mph N/A   Clear
12:35 PM 66.2 °F - 42.8 °F 43% 29.74 in 10.0 mi NNW 3.5 mph - N/A   Mostly Cloudy
12:55 PM 68.0 °F - 41.0 °F 37% 29.73 in 10.0 mi WNW 5.8 mph - N/A   Scattered Clouds
1:15 PM 66.2 °F - 39.2 °F 37% 29.73 in 10.0 mi WNW 8.1 mph 18.4 mph N/A   Mostly Cloudy
1:35 PM 68.0 °F - 41.0 °F 37% 29.73 in 10.0 mi West 6.9 mph - N/A   Overcast
1:55 PM 66.2 °F - 39.2 °F 37% 29.73 in 10.0 mi NW 10.4 mph - N/A   Overcast
2:15 PM 66.2 °F - 39.2 °F 37% 29.72 in 10.0 mi WNW 6.9 mph 16.1 mph N/A   Mostly Cloudy
2:35 PM 69.8 °F - 39.2 °F 33% 29.73 in 10.0 mi WNW 10.4 mph 16.1 mph N/A   Mostly Cloudy
2:55 PM 69.8 °F - 37.4 °F 31% 29.73 in 10.0 mi WNW 8.1 mph 16.1 mph N/A   Overcast
3:15 PM 66.2 °F - 39.2 °F 37% 29.74 in 10.0 mi NW 11.5 mph 17.3 mph N/A   Mostly Cloudy
3:35 PM 66.2 °F - 37.4 °F 35% 29.74 in 10.0 mi NW 6.9 mph 18.4 mph N/A   Partly Cloudy
3:55 PM 68.0 °F - 35.6 °F 30% 29.75 in 10.0 mi West 11.5 mph 17.3 mph N/A   Clear
4:15 PM 66.2 °F - 33.8 °F 30% 29.76 in 10.0 mi WNW 6.9 mph 20.7 mph N/A   Clear
4:35 PM 66.2 °F - 33.8 °F 30% 29.76 in 10.0 mi WNW 8.1 mph 16.1 mph N/A   Clear
4:55 PM 66.2 °F - 30.2 °F 26% 29.77 in 10.0 mi NW 9.2 mph 20.7 mph N/A   Clear
5:15 PM 64.4 °F - 32.0 °F 30% 29.78 in 10.0 mi NW 5.8 mph 17.3 mph N/A   Clear
5:35 PM 64.4 °F - 33.8 °F 32% 29.79 in 10.0 mi NW 8.1 mph 18.4 mph N/A   Clear
5:55 PM 62.6 °F - 32.0 °F 32% 29.81 in 10.0 mi NW 5.8 mph - N/A   Clear
6:15 PM 60.8 °F - 30.2 °F 31% 29.82 in 10.0 mi NW 9.2 mph - N/A   Clear
6:35 PM 60.8 °F - 33.8 °F 36% 29.84 in 10.0 mi NW 8.1 mph 18.4 mph N/A   Clear
6:55 PM 57.2 °F - 32.0 °F 38% 29.85 in 10.0 mi NW 6.9 mph - N/A   Clear
7:15 PM 57.2 °F - 30.2 °F 36% 29.87 in 10.0 mi NNW 6.9 mph 19.6 mph N/A   Clear
7:35 PM 55.4 °F - 30.2 °F 38% 29.89 in 10.0 mi NNW 6.9 mph - N/A   Clear
7:55 PM 55.4 °F - 28.4 °F 36% 29.89 in 10.0 mi NW 6.9 mph 16.1 mph N/A   Clear
8:15 PM 53.6 °F - 28.4 °F 38% 29.91 in 10.0 mi NNW 8.1 mph 17.3 mph N/A   Clear
8:35 PM 53.6 °F - 28.4 °F 38% 29.93 in 10.0 mi NNW 6.9 mph 19.6 mph N/A   Clear
8:55 PM 53.6 °F - 30.2 °F 41% 29.94 in 10.0 mi NNW 5.8 mph - N/A   Clear
9:15 PM 51.8 °F - 30.2 °F 44% 29.95 in 10.0 mi NNW 5.8 mph - N/A   Clear
9:35 PM 51.8 °F - 30.2 °F 44% 29.96 in 10.0 mi NW 8.1 mph - N/A   Clear
9:55 PM 50.0 °F - 28.4 °F 43% 29.97 in 10.0 mi NNW 5.8 mph - N/A   Clear
10:15 PM 48.2 °F - 28.4 °F 46% 29.99 in 10.0 mi North 6.9 mph - N/A   Clear
10:35 PM 48.2 °F - 28.4 °F 46% 29.99 in 10.0 mi NNW 3.5 mph - N/A   Clear
10:55 PM 48.2 °F - 28.4 °F 46% 30.00 in 10.0 mi NNW 4.6 mph - N/A   Clear
11:15 PM 46.4 °F 45.2 °F 28.4 °F 50% 30.01 in 10.0 mi NNW 3.5 mph - N/A   Clear
11:35 PM 46.4 °F 43.5 °F 28.4 °F 50% 30.02 in 10.0 mi NNW 5.8 mph - N/A   Clear
11:55 PM 46.4 °F - 28.4 °F 50% 30.03 in 10.0 mi Calm Calm - N/A   Clear